Wind_Speed
17 14 12 10 9 9 9 9 10 12 12 11 10 9 7 6 7 7 6 7 7 8 10 10 13 14 11 10 10 11 11 12 12 13 13 14 13 13 13 13 14 13 13 14 15 15 15 14 14 14 14 14 13 12 12 12 13 13 14 14 14 13 13 13 13 13 13 12 12 12 12 12 12 11 11 10 10 10 10 11 11 10 10 10 9
13 10 8 7 7 7 6 6 8 11 12 11 9 8 8 7 7 6 6 7 7 7 8 8 12 14 11 10 10 10 11 11 12 12 13 13 13 13 13 14 14 13 14 14 15 15 15 15 14 14 14 14 13 13 13 13 13 13 13 14 14 13 13 12 12 12 12 12 11 11 10 10 10 10 10 9 10 9 10 10 9 9 9 8 8
10 6 5 5 7 7 7 7 8 10 12 13 10 9 9 8 6 6 7 7 8 8 6 7 11 12 10 10 10 10 10 11 11 12 13 13 14 13 13 14 15 14 14 14 14 14 15 15 15 14 13 13 13 13 14 13 13 13 13 14 13 13 13 12 11 11 11 11 11 10 9 9 9 8 8 8 8 8 8 8 7 7 7 6 7
6 6 6 7 8 8 9 9 10 10 11 12 11 9 8 8 7 7 7 7 7 7 6 8 11 10 9 9 9 10 10 11 11 12 13 14 13 13 12 13 16 16 15 14 14 14 14 15 14 14 13 13 13 13 13 13 13 13 13 13 13 13 13 12 11 10 10 10 10 9 8 7 7 6 6 6 6 7 6 6 5 5 6 6 6
5 8 10 10 10 11 11 11 11 11 11 10 9 7 7 7 6 6 6 6 7 6 6 9 10 8 9 9 8 9 9 10 11 12 13 14 13 12 11 10 13 17 17 16 14 14 14 14 14 13 13 13 12 13 13 13 13 13 13 13 12 12 12 12 11 10 9 9 9 8 7 6 5 5 5 6 6 6 6 5 6 6 6 6 6
8 10 11 12 11 11 11 11 12 12 11 9 8 7 6 6 4 4 4 5 6 6 7 8 8 7 8 8 8 9 9 10 11 13 13 13 12 11 9 7 8 12 16 17 15 14 14 14 13 13 13 13 12 12 13 13 13 13 13 12 12 12 11 11 11 10 9 9 8 7 6 7 7 7 7 8 8 8 8 8 8 9 9 9 9
11 12 12 12 11 10 9 10 9 9 10 9 8 6 5 5 3 3 3 3 4 5 6 6 7 7 7 7 8 9 9 10 11 12 12 12 11 10 8 6 7 8 12 17 17 15 14 14 13 13 13 13 13 13 13 13 13 13 12 12 11 11 10 10 10 11 9 8 8 8 8 10 11 11 11 12 12 13 13 13 13 13 13 13 12
13 13 12 11 9 9 8 8 6 6 7 6 5 4 4 3 2 2 2 1 2 3 3 4 6 7 6 6 7 8 9 9 10 10 10 10 10 8 7 6 6 7 8 13 17 15 13 13 13 12 13 14 14 14 13 12 12 12 12 11 10 9 9 9 10 11 10 9 10 10 12 15 15 16 16 17 17 17 17 17 17 17 16 15 15
13 12 11 9 8 7 6 5 4 4 4 3 2 2 2 1 1 1 1 0 1 1 1 2 4 6 6 6 7 7 8 9 9 9 8 9 9 6 5 5 6 6 7 11 15 15 13 11 11 11 11 13 13 14 13 11 11 11 10 10 9 9 9 9 10 11 11 12 13 14 16 18 18 19 19 18 19 18 18 18 18 17 16 16 16
11 10 9 8 7 5 3 3 2 2 2 1 0 1 1 1 2 2 2 1 1 1 1 2 4 6 5 6 7 7 8 8 9 9 9 9 9 6 4 5 6 6 8 12 14 14 12 9 9 9 11 11 11 12 12 11 10 10 10 9 10 10 10 11 12 14 15 17 17 18 19 19 18 19 18 18 19 19 19 19 18 17 17 17 16
9 8 8 6 5 3 1 1 1 1 0 1 2 2 2 2 3 3 3 3 3 3 3 3 3 5 6 6 7 6 7 8 9 10 9 9 9 6 4 6 8 8 10 14 15 13 11 9 8 8 10 11 10 10 9 10 10 10 10 11 11 12 13 14 15 17 18 19 19 18 18 18 18 19 19 20 20 20 19 19 18 17 16 16 15
8 6 5 5 3 2 2 2 2 1 1 2 2 3 2 2 3 3 4 4 4 4 4 4 4 4 6 6 6 6 7 8 10 10 9 8 8 6 5 6 8 11 12 14 16 13 11 9 7 7 10 11 10 9 7 9 11 12 13 13 14 15 16 17 18 18 18 18 18 18 18 19 20 20 20 20 20 19 18 17 16 15 15 14 14
7 5 4 3 2 2 1 2 3 2 1 2 2 2 2 3 3 4 4 4 5 6 5 5 5 5 6 6 6 6 7 9 10 10 8 7 8 7 7 8 8 12 13 14 15 13 12 10 8 7 9 10 10 9 8 11 12 14 15 17 18 18 18 19 19 18 18 19 20 19 19 19 20 19 18 18 17 17 16 15 15 14 14 14 14
6 4 3 2 3 2 1 1 3 2 1 2 2 1 2 2 4 4 4 4 5 6 6 5 5 6 6 7 7 7 7 8 9 10 9 7 8 8 8 8 8 11 13 14 14 12 12 12 11 10 9 10 11 10 11 14 15 17 19 20 20 20 19 19 19 19 20 20 20 20 18 18 17 17 16 16 15 16 16 15 15 15 15 15 15
4 4 4 3 3 2 1 2 3 2 2 2 2 2 2 3 4 4 4 6 6 7 7 6 6 7 8 9 9 8 9 9 10 11 10 7 7 8 7 7 9 10 12 15 13 12 12 12 12 12 11 10 12 12 15 17 18 20 21 21 20 20 19 19 20 20 20 20 19 18 17 16 15 15 15 15 15 16 16 16 16 16 16 17 18
3 4 4 4 3 2 1 2 3 3 3 3 3 3 3 3 3 4 5 7 7 7 7 7 7 7 9 11 10 9 11 12 12 12 11 9 8 9 9 9 10 10 12 14 13 11 11 11 12 13 12 12 14 15 17 19 20 21 21 20 20 21 20 21 20 18 18 18 16 15 15 14 14 14 15 16 16 17 17 17 17 17 18 19 19
3 4 4 4 4 3 2 2 2 3 3 3 3 3 4 4 5 5 5 6 6 6 7 7 8 9 10 11 11 10 12 13 13 12 10 9 8 9 10 9 10 10 12 13 12 11 10 10 11 12 14 15 17 18 19 20 21 20 21 21 21 21 21 20 18 16 16 15 14 14 13 13 14 15 16 16 17 17 17 17 18 18 19 19 19
4 4 4 4 5 3 3 3 3 3 3 4 4 5 5 5 6 6 5 6 6 7 8 8 9 10 10 11 12 11 12 13 13 12 10 9 9 9 9 8 9 10 11 11 11 10 10 10 11 13 15 17 19 20 20 20 20 21 22 22 22 21 20 18 16 15 14 13 13 12 13 14 15 16 16 17 17 17 18 18 19 19 19 19 18
5 5 5 5 5 4 3 3 4 3 3 4 5 6 6 6 8 8 8 8 8 10 10 10 10 11 12 13 13 13 12 12 12 12 11 11 11 11 10 9 9 10 10 10 9 10 11 12 13 15 18 19 20 20 21 21 21 22 22 22 21 20 18 16 15 13 13 12 12 12 13 15 16 16 17 17 18 18 18 19 18 18 18 17 17
5 6 6 5 5 5 4 5 6 6 5 6 7 8 9 9 10 10 10 10 11 11 11 12 13 14 15 15 15 14 12 11 12 12 11 11 11 11 12 11 12 11 10 9 9 10 12 14 16 18 20 20 21 21 21 21 22 21 21 20 18 17 16 14 13 12 12 11 12 13 15 16 16 17 18 18 18 18 18 18 17 17 16 16 16
5 6 6 5 5 6 5 7 8 8 8 10 10 11 11 11 12 12 12 12 12 13 13 14 15 16 17 16 16 14 12 12 12 12 12 11 10 11 12 12 11 10 9 9 10 12 13 16 18 20 21 21 21 21 21 20 20 20 19 17 15 14 14 13 12 12 11 12 13 14 16 16 17 18 19 19 18 18 18 17 16 15 15 15 15
6 6 6 6 6 7 7 9 10 10 11 12 12 13 13 13 13 12 13 14 13 14 15 16 17 17 17 16 15 14 13 13 12 13 12 11 11 11 11 11 10 10 10 11 12 14 15 17 19 21 21 20 20 20 19 18 17 17 16 14 13 13 13 12 11 11 12 13 14 15 17 18 19 19 19 18 18 17 16 16 15 14 14 14 14
6 6 6 6 7 8 9 10 11 11 12 13 13 14 13 14 13 13 14 15 14 15 16 17 18 18 16 15 15 14 14 14 13 13 12 11 11 11 11 11 11 12 12 13 14 16 18 19 20 21 20 19 18 18 17 16 15 14 12 12 12 12 11 11 11 11 12 13 15 16 18 19 19 19 18 18 17 16 15 14 14 13 13 13 13
7 7 7 7 8 10 11 11 12 12 13 14 14 15 15 15 14 14 15 16 15 16 17 18 19 18 17 16 16 15 14 14 13 12 11 12 12 11 12 12 13 14 14 15 17 18 19 19 20 18 17 17 17 16 15 14 13 12 11 11 11 10 10 11 11 12 13 14 16 18 18 19 19 19 18 17 16 15 14 13 13 12 12 13 14
7 8 9 9 10 11 13 13 12 13 14 15 15 16 16 16 15 15 16 17 17 19 19 19 18 18 17 16 16 15 14 13 12 12 11 12 12 12 13 14 14 14 15 16 17 18 18 18 17 16 16 16 15 14 14 13 11 10 10 10 10 10 10 11 11 12 14 15 17 18 18 18 18 18 17 15 14 13 12 12 12 12 12 13 14
8 9 10 11 11 13 14 14 13 14 15 15 16 16 17 17 17 17 17 18 18 19 19 18 18 17 17 16 15 14 14 13 12 12 12 12 13 14 14 14 14 15 16 16 17 18 17 17 16 16 16 15 13 12 12 11 10 10 9 9 9 9 10 11 12 13 14 16 18 18 18 18 17 16 15 14 13 12 11 11 11 12 12 13 15
10 11 11 12 12 14 14 14 14 14 15 15 15 16 17 17 17 18 18 18 18 18 17 17 16 16 16 16 15 14 14 13 12 12 12 13 14 15 15 15 15 15 16 17 17 17 17 16 15 15 15 14 12 11 11 10 9 8 8 8 9 9 10 11 12 13 15 16 18 18 17 16 15 15 13 12 11 10 11 11 11 11 12 13 15
11 12 12 13 13 14 15 15 14 14 14 14 14 15 16 16 16 17 18 19 19 18 17 16 16 16 16 16 16 15 13 13 12 12 13 15 16 16 15 15 15 16 16 17 17 16 16 16 15 14 14 13 12 10 10 9 8 8 8 8 9 9 9 11 12 14 16 17 17 17 16 15 14 13 12 10 9 9 10 10 10 11 12 14 16
12 13 13 14 14 15 15 15 15 15 14 14 13 14 15 15 15 16 17 18 18 17 17 16 16 15 15 15 15 14 13 12 12 12 14 16 16 16 15 15 15 16 16 16 16 16 16 15 14 13 13 12 11 10 9 9 8 7 7 7 8 10 10 11 13 14 16 17 17 16 14 13 12 11 10 9 8 8 8 9 9 10 12 14 16
13 13 13 15 15 15 15 16 15 15 14 14 13 14 14 15 15 16 16 16 16 16 16 15 15 15 14 14 14 13 12 12 12 13 15 16 16 16 15 15 15 16 16 16 16 16 15 14 14 13 12 11 10 10 9 8 8 7 7 7 8 9 10 12 13 14 16 16 16 15 13 12 10 9 8 7 7 7 7 8 8 9 11 13 15
14 14 14 15 15 15 15 16 16 15 15 14 14 14 15 15 15 16 15 16 16 16 16 15 14 13 13 13 13 13 12 12 13 14 16 15 16 16 15 15 15 15 15 16 16 15 15 14 13 13 12 11 10 10 9 8 7 7 6 7 7 9 10 12 13 14 15 15 15 13 12 10 9 7 7 6 6 6 7 7 8 10 11 13 14
14 14 14 15 15 15 15 16 16 16 15 14 15 15 15 15 16 16 16 17 17 17 16 14 13 13 12 13 12 12 12 12 14 15 15 15 15 15 15 15 15 15 15 15 15 15 14 13 12 12 11 11 10 9 9 7 7 7 6 6 7 10 11 12 13 13 14 14 13 12 10 9 7 6 5 4 5 5 6 7 9 10 11 12 14
14 15 14 14 14 14 15 16 15 15 16 16 16 16 16 16 16 17 17 17 17 16 16 14 13 13 12 11 11 11 11 13 14 15 14 14 15 15 15 15 15 15 15 14 14 14 14 13 12 11 10 10 9 9 8 7 6 6 6 6 7 9 11 12 12 13 13 13 12 11 9 7 5 4 3 3 4 5 6 8 10 11 12 12 14
15 15 15 14 14 14 14 15 15 15 16 16 17 17 17 17 18 17 17 17 17 16 15 14 13 12 11 11 10 10 11 12 14 14 13 13 14 15 15 16 16 15 15 14 14 13 13 12 11 10 10 9 9 8 8 7 6 5 5 6 7 9 11 12 13 12 12 12 11 9 7 6 4 3 2 2 3 5 7 9 10 11 11 12 13
16 16 15 15 14 13 14 15 15 15 16 17 18 18 18 18 18 18 17 17 16 15 14 13 12 11 11 10 10 10 10 12 13 13 13 13 13 14 15 16 16 15 14 14 13 13 12 12 11 10 10 9 9 8 8 7 6 5 5 5 7 8 10 11 12 12 11 10 9 8 6 5 3 1 1 1 3 5 7 9 10 11 11 12 13
17 17 15 15 14 13 14 15 15 16 17 17 17 17 17 18 18 17 17 16 16 14 14 13 12 11 11 11 11 10 11 11 12 13 12 12 12 13 15 16 16 15 14 13 13 12 11 11 10 10 10 9 9 8 8 7 6 6 4 4 5 7 9 9 10 11 9 8 8 7 5 3 2 0 2 3 3 5 8 9 10 10 11 12 13
17 18 17 16 15 13 13 14 16 16 17 17 17 17 17 17 17 16 16 15 15 14 13 12 11 11 11 11 11 11 11 12 12 12 12 12 12 12 14 15 15 15 14 12 12 11 11 10 9 10 10 10 9 7 7 7 6 6 4 4 4 6 7 8 10 10 8 7 6 6 4 2 1 2 3 3 5 5 7 8 9 11 11 13 14
18 18 18 17 15 14 13 14 15 16 16 16 16 16 16 15 15 15 14 14 14 13 12 11 11 10 10 10 10 11 11 12 13 12 12 11 12 12 13 14 14 15 14 12 11 10 10 9 8 8 9 9 9 7 6 6 6 5 3 3 4 6 5 5 7 7 6 5 4 3 2 1 2 5 4 4 6 6 7 7 8 10 11 13 14
19 19 19 18 16 15 14 13 14 15 15 15 15 14 13 13 13 13 13 13 13 12 11 10 10 9 9 9 9 10 11 12 13 12 12 11 11 12 13 13 14 14 13 11 11 10 9 9 8 7 8 8 8 7 7 6 5 5 3 3 4 5 5 3 3 4 3 3 2 1 1 2 3 7 8 7 7 7 8 9 8 10 11 12 14
19 19 19 18 17 15 14 13 13 13 14 14 13 12 12 12 12 12 12 12 11 11 11 10 9 8 8 8 8 9 10 11 12 12 12 12 11 12 12 13 13 12 12 11 11 10 9 8 8 8 8 7 7 6 6 6 5 4 4 4 3 3 4 4 3 2 2 2 3 1 2 4 5 8 9 9 9 7 9 12 12 11 11 12 14
18 19 19 19 18 16 15 14 13 13 13 12 12 11 11 11 12 12 11 11 10 10 10 9 8 8 7 8 8 8 9 10 10 11 12 12 12 11 12 12 12 11 11 11 10 9 8 8 7 8 7 6 6 5 5 6 5 3 4 3 2 2 3 3 2 1 0 3 4 2 2 4 7 8 9 11 11 10 10 12 12 13 13 14 15
17 17 18 19 18 16 15 14 13 13 12 12 12 12 12 12 13 13 12 11 10 10 10 9 9 8 7 7 7 7 8 8 9 9 10 12 12 12 11 11 11 11 10 10 9 8 8 8 8 7 7 6 5 5 6 6 4 3 3 3 2 1 1 2 1 1 1 3 4 5 5 3 6 8 8 10 11 11 11 11 13 13 14 14 15
17 17 17 18 18 17 16 15 14 13 13 13 13 12 12 13 14 14 13 11 11 10 10 9 9 8 7 6 6 7 7 8 8 8 9 10 11 11 11 10 11 10 10 10 9 8 7 8 8 7 7 6 5 5 5 5 5 3 3 3 3 2 1 1 2 2 2 4 4 6 8 5 7 11 9 9 10 12 13 13 14 15 15 15 14
17 17 17 17 17 17 17 16 15 14 13 13 13 13 13 13 14 14 13 12 11 10 9 9 9 9 7 6 6 6 7 7 7 7 8 9 10 11 10 10 10 9 9 9 9 8 7 8 8 7 7 7 5 5 4 4 5 4 4 3 3 3 1 2 3 4 2 5 5 6 9 7 8 13 12 10 11 13 15 15 15 15 16 17 16
17 17 16 16 17 17 17 17 17 16 15 14 14 14 14 14 13 13 12 11 11 10 9 8 8 8 7 6 6 6 6 7 7 7 7 8 9 10 10 10 9 9 9 9 9 9 9 9 9 8 7 6 6 6 4 3 4 4 4 4 3 2 3 2 3 5 3 3 5 8 11 9 8 14 13 11 12 14 15 17 17 17 17 19 20
16 17 16 16 17 17 18 18 18 17 16 16 15 14 14 14 13 12 11 11 10 9 8 8 7 7 7 6 6 7 7 7 7 8 8 8 9 9 9 9 9 9 8 9 9 10 10 9 10 9 7 5 5 6 5 4 4 4 3 3 4 4 5 4 4 6 6 5 5 6 11 11 9 12 13 12 13 15 16 17 17 18 18 18 20
16 17 17 18 18 18 18 19 19 18 17 17 16 15 15 14 14 13 12 11 10 9 9 8 8 8 7 8 8 7 7 7 7 8 8 8 8 9 9 9 9 9 8 9 9 10 10 10 10 9 8 6 5 6 7 6 5 5 4 4 4 5 5 5 5 6 6 7 8 5 7 11 10 10 12 12 13 15 16 17 17 18 20 18 18
17 18 18 18 18 18 19 19 20 19 18 17 16 16 15 15 15 14 13 12 11 10 10 9 9 9 9 9 9 8 7 7 7 7 8 8 8 9 9 9 9 9 9 9 10 10 10 10 10 9 8 8 7 7 8 7 7 6 6 5 5 6 6 6 7 7 7 8 11 8 7 11 11 11 13 12 13 15 16 17 17 18 19 18 18
18 18 19 19 19 19 19 19 19 19 18 18 17 17 17 16 16 16 15 14 13 12 11 10 10 10 9 9 9 9 8 7 7 7 8 8 9 9 8 9 9 9 9 10 10 10 10 10 10 9 9 9 8 7 7 8 9 8 7 6 6 6 7 8 7 8 9 10 11 10 9 11 11 12 15 14 15 17 17 18 18 18 19 18 18
18 19 19 19 19 19 19 19 19 19 18 18 18 17 17 17 16 16 16 14 13 13 12 11 10 10 10 10 10 9 9 8 8 7 8 8 8 9 8 8 8 9 9 10 10 10 10 10 10 9 9 9 8 8 7 8 9 9 9 8 7 8 8 9 9 9 10 11 11 9 9 11 12 14 16 15 16 18 18 18 18 18 19 18 18
19 19 19 19 19 19 19 19 19 18 18 18 18 18 17 17 16 16 15 15 14 13 13 12 11 10 10 10 10 10 10 9 8 8 8 8 8 8 8 8 8 9 9 9 10 10 10 10 10 9 9 9 9 9 8 9 9 9 10 10 9 9 9 9 11 11 11 12 13 11 10 12 13 14 17 16 16 18 18 17 17 17 17 17 17
Wind_Direction
140 133 130 128 129 130 133 144 147 150 151 151 150 149 151 144 145 144 142 128 127 132 125 122 112 107 105 104 102 101 101 102 112 122 125 126 127 121 116 113 112 109 106 106 105 106 106 107 108 108 107 106 104 104 104 103 103 103 101 102 101 102 102 102 104 106 106 106 106 106 106 107 105 104 103 103 102 102 101 101 101 104 109 114 119
140 140 139 138 143 143 148 160 158 159 160 161 158 161 172 164 160 153 146 135 129 129 125 123 108 103 102 99 97 97 99 101 110 123 125 126 129 123 117 116 115 113 110 107 106 107 108 108 107 106 105 104 104 105 105 104 105 105 103 102 102 103 103 102 103 104 106 106 105 104 104 104 105 105 105 107 108 109 107 105 103 103 106 111 118
148 155 154 162 167 166 173 172 160 160 161 161 156 157 168 160 161 160 148 138 135 130 130 121 100 97 101 98 96 94 96 100 108 122 128 130 132 128 126 127 123 118 112 109 110 110 110 110 108 107 106 106 106 106 105 105 106 106 105 103 103 105 104 103 102 103 105 104 103 104 103 104 106 104 105 110 115 117 115 111 108 109 114 117 119
151 146 142 151 160 157 160 163 155 153 155 155 151 147 145 136 138 141 144 145 133 125 126 106 90 94 101 95 93 92 94 101 110 123 130 131 133 133 137 140 131 123 114 111 111 110 111 110 109 109 110 110 110 107 106 107 108 106 105 104 106 107 106 105 103 101 102 103 105 105 103 103 103 104 108 114 121 123 120 117 117 124 131 131 123
141 131 127 132 140 141 141 152 150 144 146 145 141 133 123 122 123 122 139 149 131 119 109 97 97 103 100 93 90 91 94 101 112 124 129 133 137 137 143 146 130 123 117 113 111 108 107 106 108 110 112 113 113 110 109 110 108 107 107 107 108 107 107 107 106 103 101 102 104 102 98 97 96 99 106 111 119 120 120 120 120 121 123 123 119
140 129 123 124 128 130 128 138 142 140 139 139 136 125 119 119 119 110 129 150 139 130 113 109 113 103 97 98 93 93 96 101 113 124 131 137 138 136 143 142 122 119 119 117 111 108 106 105 107 110 113 115 115 112 112 111 110 109 108 108 109 108 107 107 109 108 106 105 105 103 96 95 94 95 101 106 110 112 112 112 111 110 108 109 109
136 125 122 124 124 122 122 128 131 133 130 133 135 126 131 127 133 128 136 169 144 126 119 121 117 105 102 103 100 99 101 105 114 124 132 136 134 134 138 133 120 116 116 114 110 107 104 103 103 107 112 115 117 116 114 113 112 111 110 109 109 108 107 108 110 108 109 111 109 103 97 96 97 99 102 104 104 104 104 103 102 102 102 103 104
130 124 122 122 121 113 117 123 118 123 118 123 129 127 143 142 161 149 145 184 100 93 110 121 118 115 112 111 111 108 109 111 116 124 134 137 134 133 134 132 126 119 111 106 105 104 101 101 103 106 108 112 117 119 117 115 114 113 112 111 110 110 110 111 113 114 115 111 104 100 101 101 101 102 102 102 102 101 101 100 100 99 100 101 102
128 125 121 116 114 104 110 121 109 112 110 120 131 136 161 159 198 176 168 238 8 27 91 133 132 123 119 125 125 118 119 120 117 121 131 128 119 115 125 134 129 125 113 98 98 98 97 100 104 103 103 107 115 119 118 115 114 110 108 108 109 111 111 112 114 115 112 107 105 105 105 104 104 104 102 102 102 101 101 101 100 100 101 101 102
127 125 121 118 114 107 111 112 100 104 102 151 242 260 233 207 183 195 217 206 230 247 185 181 154 132 128 135 136 130 125 125 122 119 115 103 99 106 131 145 137 127 115 106 102 98 98 100 100 101 102 106 112 116 117 115 113 107 106 106 108 110 111 114 113 111 109 109 107 105 104 104 105 104 103 103 102 102 101 101 101 101 100 100 99
128 127 122 118 115 120 131 99 102 119 160 248 248 238 226 196 189 200 206 207 212 222 198 172 156 139 138 144 146 135 123 125 124 114 106 100 105 122 155 166 150 135 124 119 114 107 106 105 103 104 104 105 107 110 113 116 114 110 110 108 109 110 112 113 111 110 111 110 105 102 102 103 105 104 104 103 102 102 101 100 99 99 98 96 94
126 125 117 112 115 132 152 151 149 152 201 227 225 225 218 190 197 200 193 204 202 202 191 165 161 147 139 144 146 136 130 127 122 112 107 113 120 131 156 179 159 134 127 123 119 117 117 112 106 106 106 105 102 99 107 114 113 113 111 110 111 113 115 113 110 110 110 108 105 103 104 105 105 105 105 104 102 101 99 98 96 96 94 92 90
122 116 110 109 104 120 154 145 137 153 189 196 208 228 213 181 185 201 198 195 190 183 176 168 159 141 133 138 137 134 130 126 124 119 121 133 135 142 165 184 162 131 126 123 120 121 119 112 107 111 113 109 100 96 111 116 113 112 112 113 115 116 115 111 109 109 108 107 107 107 106 106 105 105 104 102 101 99 97 96 94 93 90 88 85
119 114 104 94 82 101 128 101 115 133 175 179 174 181 192 181 180 196 191 171 180 176 164 162 149 135 131 130 128 125 120 125 133 130 134 147 145 152 172 173 141 123 124 120 119 118 110 103 104 114 117 110 101 104 117 117 114 113 114 115 116 116 112 108 108 109 108 107 107 107 106 105 104 103 102 99 98 97 96 95 93 91 88 86 82
118 116 114 114 92 93 124 124 130 136 158 170 163 167 175 175 177 188 169 146 161 167 154 156 147 133 128 127 129 124 118 126 134 132 136 143 141 147 157 144 123 121 122 116 116 113 102 98 104 111 112 106 104 112 119 117 116 116 116 117 116 114 111 110 111 110 109 107 106 104 103 103 102 101 99 98 96 96 95 94 93 90 87 84 82
125 118 124 126 113 124 161 140 139 148 160 160 158 158 154 157 162 170 155 139 151 157 149 151 146 136 130 132 134 127 124 129 127 126 134 139 137 133 131 129 128 127 119 113 114 111 102 99 101 105 107 108 111 118 120 118 118 117 117 116 116 113 112 112 111 109 109 106 104 103 103 102 101 100 98 97 96 97 96 95 93 90 88 85 83
121 116 130 132 122 138 153 128 133 158 164 153 152 146 137 138 140 148 150 140 143 150 149 147 145 142 139 138 134 128 128 129 126 125 128 131 131 125 121 122 124 119 110 111 115 112 104 97 97 104 111 115 119 122 120 118 117 117 117 117 115 113 112 111 108 108 107 104 104 103 103 102 100 99 99 99 99 99 97 95 93 91 88 85 82
117 114 126 126 119 124 143 136 137 155 157 144 141 141 134 132 135 140 145 138 133 141 146 144 144 143 142 138 132 128 128 130 128 126 124 125 125 121 123 121 115 108 106 111 115 110 103 101 105 110 116 120 122 121 118 118 118 117 117 117 116 113 112 109 105 106 105 103 103 103 102 100 100 100 101 101 101 100 98 95 92 90 86 83 80
116 116 118 119 118 124 148 140 129 129 132 133 129 127 123 127 135 138 139 135 130 133 139 139 137 139 138 135 131 129 132 134 127 122 123 125 124 124 128 126 118 112 110 112 109 108 110 113 116 118 121 122 121 119 118 118 118 117 117 116 115 112 109 105 103 105 105 105 104 103 102 101 102 104 105 105 104 102 99 95 92 88 85 81 77
121 121 118 121 122 124 137 127 118 114 115 124 120 119 122 126 133 136 135 134 134 132 133 131 130 134 135 132 129 128 128 129 121 119 123 123 123 124 125 124 121 119 116 112 110 113 115 117 120 121 122 122 120 118 118 118 117 117 116 115 113 109 106 103 105 107 107 107 105 104 103 104 107 109 110 108 106 103 98 94 90 86 83 79 75
124 120 118 121 119 118 125 120 114 109 111 116 115 116 121 126 131 134 129 129 134 133 129 125 128 133 131 129 124 121 120 122 122 123 125 124 125 122 119 118 117 116 112 110 112 115 116 119 122 122 122 121 119 117 116 115 115 116 116 114 109 105 104 106 110 110 109 107 105 106 107 110 113 114 113 110 105 101 96 92 88 84 81 77 72
117 114 113 117 117 118 122 117 113 110 110 111 114 116 118 123 128 127 124 126 131 132 130 125 128 129 126 125 120 118 119 122 126 126 125 123 119 114 111 109 107 106 106 108 113 117 120 123 124 124 122 118 116 115 113 113 114 116 116 113 108 107 108 111 112 110 109 107 107 110 113 117 118 117 113 108 103 98 94 89 85 82 78 74 69
117 114 115 119 120 121 122 118 116 112 109 110 113 116 117 120 122 121 121 126 127 128 128 124 125 125 124 123 120 120 121 124 126 122 118 112 106 102 100 101 103 105 107 111 117 122 125 125 125 124 119 114 115 115 113 115 115 115 114 110 108 110 111 112 110 108 108 108 112 116 119 121 120 116 111 106 102 97 92 87 84 80 74 69 64
122 123 124 125 123 123 123 120 118 113 110 111 112 113 114 115 118 122 124 125 124 124 125 124 123 124 126 126 124 126 127 127 124 115 108 102 98 98 101 107 110 111 112 116 120 123 124 124 123 119 112 111 114 114 116 117 115 115 112 108 108 110 109 109 107 107 110 113 117 121 123 122 120 115 111 107 101 96 91 86 83 78 71 64 59
129 129 129 127 125 124 125 123 120 116 113 112 111 112 114 115 116 122 126 126 124 125 126 125 125 127 129 130 130 130 127 121 112 106 103 103 104 105 110 115 115 114 114 117 119 121 122 121 117 112 109 111 112 115 119 117 114 111 106 105 106 107 108 108 108 110 113 117 121 124 125 123 120 115 111 107 102 96 91 86 80 73 66 59 53
132 133 131 128 127 128 127 125 123 118 116 114 113 114 116 117 117 120 125 128 128 127 128 127 129 132 132 131 129 125 116 105 99 99 103 107 112 114 118 118 115 113 115 118 120 122 121 117 114 112 112 112 114 117 118 115 111 106 102 105 106 109 112 109 110 114 117 121 125 127 126 123 119 114 111 108 103 97 89 82 75 67 60 53 49
131 131 130 130 130 129 127 125 124 120 118 117 115 116 118 118 119 121 125 130 130 130 130 131 132 132 131 129 124 118 108 99 95 99 108 113 117 120 121 118 114 114 118 121 123 123 119 116 116 116 117 117 118 118 115 112 109 106 105 106 109 113 114 111 112 117 120 124 127 127 126 123 119 117 115 111 104 95 85 76 68 59 53 47 41
130 130 130 131 133 131 129 127 125 123 121 119 118 118 119 119 120 122 126 130 132 134 134 133 132 130 129 126 119 114 107 101 98 103 115 121 122 123 122 119 116 119 122 123 122 120 117 118 119 118 120 120 117 117 115 108 106 109 108 109 113 113 113 115 117 120 124 126 128 128 127 125 125 124 120 114 103 91 80 69 60 52 45 39 34
131 132 131 133 135 133 130 130 128 127 125 123 122 122 123 123 124 124 127 130 133 135 133 131 129 127 125 122 118 116 112 107 104 112 122 125 125 125 124 121 120 123 124 124 123 120 119 121 121 121 122 120 117 116 113 108 108 110 110 112 115 113 115 120 120 123 126 128 130 130 131 132 132 130 123 114 100 86 75 62 52 44 38 32 28
134 133 132 134 136 134 132 132 132 129 127 126 126 126 127 128 127 127 128 129 131 132 130 129 128 127 126 123 122 121 119 115 113 121 127 127 126 126 125 124 124 125 126 127 126 124 123 124 124 123 123 121 116 114 111 109 112 112 110 113 115 117 121 122 121 125 129 131 134 136 138 139 138 132 122 109 94 79 66 53 40 33 30 25 23
136 135 133 135 136 134 134 135 134 131 126 126 128 128 129 131 130 128 129 130 131 132 130 131 130 130 129 127 126 126 124 122 123 129 130 128 127 127 127 127 128 128 127 130 130 126 125 126 126 124 122 119 113 113 111 109 114 114 111 114 122 128 129 126 123 128 134 136 139 143 145 145 141 131 116 100 84 66 51 39 28 24 21 19 18
137 137 135 135 136 135 136 136 134 131 128 128 129 129 130 131 130 129 129 130 132 133 133 134 133 132 131 129 129 129 129 127 128 133 131 129 129 129 129 129 129 130 131 133 131 127 125 124 122 119 120 116 110 111 110 108 113 115 116 120 131 135 134 133 131 138 142 141 144 149 150 147 139 122 102 85 65 46 35 24 18 17 14 13 13
139 138 137 138 137 137 137 135 134 131 130 130 129 128 128 128 128 129 129 130 131 134 135 134 134 133 132 133 133 132 131 129 130 132 130 129 130 131 131 131 132 133 135 134 131 127 125 122 120 117 116 112 107 108 107 106 110 115 121 125 132 136 137 137 141 147 148 145 149 152 152 147 133 114 95 71 46 26 15 10 10 9 7 8 8
141 141 140 141 139 138 136 134 134 133 131 130 129 127 127 127 127 128 128 129 130 131 133 134 134 134 135 136 135 134 131 130 130 131 130 130 132 133 133 135 135 135 136 135 131 129 127 124 122 118 113 108 104 102 100 100 108 113 116 125 135 138 139 143 148 150 150 153 153 153 155 146 134 123 87 42 18 6 1 0 0 1 2 2 4
144 143 144 143 140 138 136 136 135 134 132 131 131 130 129 129 129 129 130 131 131 132 133 133 134 136 138 139 137 136 134 133 133 132 131 131 134 136 137 139 138 137 137 136 134 133 130 126 126 121 115 111 102 97 94 93 100 100 102 124 138 142 145 150 151 148 153 158 153 155 158 149 150 142 71 350 351 352 351 351 351 355 357 357 360
146 145 147 145 143 142 138 139 138 136 135 134 134 134 133 134 134 134 135 135 134 134 135 135 137 139 140 140 139 140 138 138 138 136 134 133 137 139 140 143 142 140 140 139 136 132 128 126 127 123 119 114 103 95 93 89 86 85 96 128 142 147 148 153 151 152 160 160 156 160 159 162 174 201 309 313 339 345 342 345 348 351 353 352 354
150 149 150 148 147 145 142 142 142 141 139 138 138 137 138 139 139 140 140 140 138 137 138 138 140 140 139 138 138 140 141 142 142 139 136 135 139 141 144 147 146 143 142 141 135 130 127 126 125 120 118 115 108 100 94 91 84 76 86 123 146 148 145 162 159 157 165 166 175 169 158 183 238 273 279 314 331 341 345 346 350 352 351 349 350
153 153 152 152 151 148 146 147 147 147 145 144 144 143 144 144 143 144 144 143 141 139 139 139 138 136 134 134 136 140 141 142 142 140 137 137 140 143 148 149 148 145 143 141 137 134 133 131 127 119 116 116 117 114 104 102 100 89 81 109 141 137 134 174 164 153 162 180 198 155 141 242 304 296 295 331 333 348 347 336 349 352 348 346 347
154 155 154 154 154 153 152 151 152 153 151 150 149 149 148 146 143 145 145 143 142 139 137 135 133 132 131 132 136 139 141 141 142 142 139 139 141 144 150 151 150 148 144 142 140 141 141 140 139 128 119 116 118 119 112 108 110 116 110 108 132 130 133 163 152 147 162 204 226 83 347 288 317 313 324 341 334 349 339 327 347 351 343 343 344
157 157 157 158 157 158 156 155 158 158 155 152 151 151 148 146 144 144 145 144 142 138 134 131 129 129 130 132 137 139 142 142 142 144 143 142 142 145 151 154 155 152 147 146 144 144 145 146 144 132 125 121 119 116 112 110 113 121 115 110 119 129 148 151 136 146 153 254 256 97 328 313 324 320 328 327 322 342 339 334 344 342 338 341 343
161 162 161 161 161 161 160 161 161 160 158 155 153 153 151 149 147 147 148 148 146 139 135 134 132 133 135 136 138 138 141 143 145 148 147 145 145 150 155 158 160 158 152 149 148 148 148 148 144 135 130 132 132 124 118 114 110 116 117 114 122 143 158 134 114 161 151 307 307 311 310 338 336 323 324 321 324 339 338 332 333 333 334 339 342
165 166 165 164 164 165 165 165 163 160 161 159 158 159 158 156 154 153 154 154 153 146 141 140 138 138 139 137 136 137 139 142 149 155 154 150 150 154 158 163 166 164 160 155 156 157 157 156 151 145 139 136 137 135 132 123 114 128 131 119 115 143 194 143 154 229 282 316 324 308 295 338 328 306 312 322 329 331 325 323 323 326 328 333 337
168 170 170 169 169 169 169 168 165 163 163 163 163 163 164 162 161 161 159 159 158 153 148 145 143 143 144 143 141 140 139 142 150 158 160 158 158 159 161 167 168 167 168 166 166 168 168 165 160 158 147 134 133 139 140 136 137 144 141 142 132 129 253 272 255 252 293 312 326 310 297 304 300 294 305 319 321 316 314 316 317 319 322 326 331
172 174 173 173 172 171 171 171 169 167 166 166 166 166 166 165 165 165 162 161 161 158 152 147 146 145 145 148 147 147 144 142 149 157 162 162 162 163 165 169 169 170 175 176 177 178 180 176 170 171 159 142 143 151 153 151 153 157 159 177 159 136 222 289 283 270 307 324 317 294 293 304 301 298 308 314 311 311 312 316 318 319 320 322 328
174 175 175 175 175 173 173 173 172 171 169 170 170 168 166 164 165 166 162 162 161 159 155 152 149 145 146 153 156 159 155 150 152 155 161 164 165 168 170 173 173 175 180 183 185 186 186 185 180 180 172 160 162 163 169 175 171 170 172 193 191 185 241 253 278 278 271 291 294 293 300 309 301 299 310 314 308 309 311 315 320 319 317 322 326
177 176 176 178 179 177 175 174 173 174 174 174 173 169 165 164 163 162 159 159 160 161 158 157 158 156 160 168 172 173 168 161 158 158 162 166 169 173 176 179 181 183 186 187 190 191 191 190 187 188 190 188 187 177 179 191 190 182 182 214 223 231 256 254 263 282 278 266 273 299 306 304 302 304 311 314 309 307 307 312 317 316 317 323 324
181 179 180 181 181 180 178 176 175 176 177 176 174 171 166 163 161 159 158 160 165 169 168 168 172 174 178 181 183 181 176 169 165 163 165 167 172 177 181 186 189 192 193 192 192 194 194 191 189 195 203 205 208 199 193 197 199 203 209 222 232 235 249 254 252 270 283 277 269 272 290 296 304 305 302 307 309 306 304 308 314 314 316 321 323
186 184 184 183 182 183 182 180 178 177 179 178 175 174 169 165 163 163 165 168 172 177 179 180 181 183 184 187 189 187 181 179 175 173 172 174 176 179 184 189 194 198 199 199 199 199 199 197 198 205 211 210 211 212 209 208 210 220 228 228 237 242 245 254 258 265 271 276 283 288 293 297 304 301 297 304 307 306 309 312 316 316 318 323 327
191 188 187 186 183 184 185 184 182 180 180 178 177 177 173 171 170 170 174 177 178 181 185 188 186 185 187 189 192 189 185 186 184 182 181 182 182 182 185 187 192 197 200 204 206 208 209 209 212 217 219 217 216 220 221 221 224 230 237 239 247 258 263 263 265 272 273 276 286 298 306 305 305 301 300 307 308 309 315 318 321 322 323 328 329
194 192 190 189 186 187 186 186 187 185 181 179 180 180 178 177 177 178 181 183 184 184 187 189 186 188 190 190 192 190 189 189 188 188 186 186 187 186 189 189 190 194 199 204 207 211 215 218 222 223 223 222 222 227 228 227 232 236 243 252 262 270 273 274 273 275 280 283 284 291 303 301 300 301 301 306 310 311 316 318 320 324 326 328 329
195 194 194 192 189 189 188 187 189 189 186 183 183 184 183 182 182 185 187 187 188 189 190 188 187 191 193 192 193 192 192 192 192 193 189 191 193 192 195 197 197 199 200 204 206 211 216 220 224 225 226 228 227 232 234 234 237 239 248 257 265 272 274 278 278 275 280 285 286 290 295 291 295 301 301 306 312 313 316 317 319 324 327 329 330
Height
3196 3197 3197 3198 3198 3199 3199 3200 3201 3201 3201 3201 3201 3201 3202 3202 3203 3203 3204 3204 3205 3205 3205 3204 3202 3201 3204 3205 3205 3205 3205 3205 3205 3205 3205 3206 3206 3206 3206 3206 3206 3206 3207 3207 3207 3208 3208 3208 3207 3207 3207 3207 3208 3208 3208 3208 3209 3209 3209 3210 3210 3210 3210 3210 3211 3211 3211 3211 3211 3211 3212 3212 3212 3212 3212 3212 3212 3213 3213 3214 3214 3214 3215 3215 3216
3197 3198 3198 3199 3199 3199 3200 3201 3202 3202 3202 3202 3202 3202 3203 3203 3204 3204 3204 3205 3206 3207 3206 3205 3202 3201 3204 3205 3205 3206 3206 3206 3206 3206 3206 3207 3207 3207 3207 3207 3207 3207 3207 3208 3208 3208 3209 3209 3208 3208 3208 3208 3209 3209 3209 3209 3210 3210 3210 3211 3211 3211 3211 3211 3211 3212 3212 3212 3212 3212 3213 3213 3213 3213 3213 3213 3214 3214 3214 3214 3215 3215 3215 3216 3216
3198 3199 3199 3199 3199 3200 3201 3202 3202 3203 3203 3203 3204 3204 3204 3204 3205 3205 3206 3206 3207 3207 3207 3206 3203 3203 3206 3206 3206 3206 3207 3207 3207 3207 3207 3208 3208 3208 3208 3207 3207 3208 3208 3209 3209 3209 3210 3209 3209 3209 3209 3209 3210 3210 3210 3210 3210 3211 3211 3212 3212 3212 3212 3212 3212 3213 3213 3213 3213 3214 3214 3214 3214 3214 3214 3214 3215 3215 3215 3216 3216 3216 3216 3216 3216
3198 3199 3199 3199 3199 3200 3202 3202 3203 3203 3204 3205 3205 3205 3205 3205 3206 3206 3207 3207 3208 3208 3207 3207 3206 3206 3207 3207 3207 3207 3207 3208 3208 3208 3208 3209 3210 3210 3209 3208 3206 3206 3208 3209 3210 3210 3210 3210 3211 3210 3210 3210 3210 3210 3211 3211 3211 3212 3212 3213 3213 3213 3213 3213 3213 3214 3214 3214 3214 3215 3215 3214 3215 3215 3215 3215 3215 3216 3216 3216 3216 3216 3217 3217 3217
3198 3199 3200 3200 3200 3201 3202 3203 3204 3204 3204 3205 3205 3204 3204 3205 3205 3206 3207 3207 3208 3208 3207 3207 3207 3208 3208 3208 3208 3208 3208 3208 3209 3209 3209 3210 3211 3211 3211 3211 3208 3206 3207 3209 3210 3211 3211 3211 3211 3212 3212 3211 3211 3211 3212 3212 3212 3212 3213 3213 3214 3214 3214 3215 3215 3215 3214 3215 3215 3216 3215 3215 3215 3215 3216 3216 3216 3216 3217 3217 3217 3217 3217 3217 3217
3199 3200 3200 3201 3201 3202 3203 3204 3204 3204 3205 3205 3204 3204 3205 3205 3205 3206 3207 3207 3208 3208 3206 3205 3207 3208 3208 3208 3209 3209 3209 3209 3210 3210 3210 3211 3211 3212 3213 3214 3212 3210 3208 3208 3209 3211 3212 3212 3213 3213 3213 3213 3213 3212 3212 3213 3213 3213 3214 3214 3214 3215 3215 3216 3216 3216 3215 3216 3217 3217 3216 3216 3216 3216 3216 3216 3217 3217 3217 3218 3218 3218 3218 3218 3218
3200 3200 3201 3201 3201 3202 3203 3204 3205 3204 3205 3205 3205 3205 3206 3206 3206 3206 3207 3208 3207 3206 3204 3204 3208 3209 3208 3209 3209 3209 3209 3209 3210 3210 3211 3212 3213 3213 3214 3215 3214 3214 3212 3210 3209 3211 3212 3213 3214 3214 3214 3214 3214 3214 3213 3214 3214 3214 3214 3214 3215 3215 3216 3216 3216 3217 3217 3217 3218 3218 3217 3217 3217 3217 3217 3217 3217 3218 3218 3219 3219 3219 3219 3219 3219
3200 3200 3201 3201 3202 3203 3203 3204 3204 3204 3205 3205 3204 3205 3205 3206 3206 3206 3206 3207 3205 3204 3204 3204 3208 3209 3208 3209 3209 3209 3209 3210 3211 3211 3212 3213 3214 3214 3215 3216 3216 3216 3216 3214 3211 3212 3214 3214 3215 3215 3215 3215 3215 3215 3215 3215 3215 3215 3215 3215 3216 3216 3216 3216 3217 3217 3218 3218 3218 3218 3218 3219 3219 3219 3219 3219 3219 3219 3219 3220 3220 3220 3220 3221 3221
3200 3200 3201 3201 3201 3202 3202 3203 3203 3204 3204 3204 3204 3204 3205 3205 3205 3205 3205 3205 3205 3204 3204 3204 3207 3209 3209 3209 3209 3209 3210 3211 3211 3212 3213 3214 3214 3215 3216 3217 3218 3218 3218 3218 3214 3213 3215 3216 3215 3215 3215 3216 3216 3216 3216 3216 3216 3216 3216 3216 3216 3216 3217 3217 3218 3218 3218 3219 3219 3220 3220 3220 3221 3221 3221 3221 3220 3221 3221 3221 3221 3221 3222 3222 3222
3201 3201 3201 3201 3201 3201 3202 3202 3202 3203 3204 3203 3203 3204 3204 3204 3205 3204 3205 3205 3205 3205 3205 3205 3206 3208 3209 3209 3209 3210 3210 3211 3212 3212 3213 3214 3215 3216 3217 3219 3219 3219 3221 3221 3217 3216 3217 3217 3217 3217 3217 3217 3217 3217 3217 3217 3217 3217 3217 3217 3217 3217 3218 3218 3218 3219 3219 3220 3221 3221 3222 3222 3222 3222 3222 3222 3222 3222 3222 3222 3222 3223 3223 3223 3223
3201 3201 3201 3201 3202 3201 3201 3201 3202 3203 3203 3203 3204 3204 3204 3204 3205 3205 3205 3205 3206 3205 3206 3206 3206 3207 3209 3209 3210 3210 3211 3212 3212 3213 3213 3214 3216 3216 3218 3220 3220 3220 3223 3224 3221 3219 3219 3219 3219 3218 3218 3218 3218 3218 3218 3218 3218 3217 3217 3217 3218 3218 3219 3219 3219 3220 3221 3222 3223 3223 3223 3224 3224 3223 3223 3223 3223 3223 3223 3223 3223 3224 3224 3224 3224
3202 3202 3202 3202 3202 3201 3201 3202 3202 3203 3203 3204 3204 3204 3204 3205 3205 3205 3205 3205 3206 3206 3206 3206 3206 3206 3207 3208 3210 3211 3212 3212 3213 3213 3214 3215 3216 3217 3219 3221 3221 3221 3223 3226 3224 3222 3222 3221 3220 3220 3219 3219 3218 3218 3218 3218 3218 3218 3218 3218 3219 3219 3220 3220 3221 3222 3223 3223 3224 3225 3225 3225 3225 3225 3225 3225 3225 3225 3225 3225 3225 3225 3225 3225 3225
3202 3202 3202 3202 3202 3201 3201 3202 3202 3203 3203 3204 3204 3203 3204 3205 3205 3204 3205 3206 3206 3206 3206 3207 3207 3206 3207 3208 3209 3211 3211 3212 3213 3213 3214 3215 3216 3217 3220 3222 3222 3222 3223 3225 3225 3224 3224 3223 3222 3220 3219 3218 3218 3219 3219 3219 3219 3219 3220 3220 3220 3221 3221 3222 3222 3224 3224 3225 3225 3226 3227 3227 3227 3226 3227 3226 3226 3226 3226 3226 3226 3226 3226 3226 3226
3202 3202 3202 3202 3202 3202 3201 3202 3203 3203 3203 3203 3203 3203 3204 3204 3205 3204 3205 3206 3206 3206 3206 3206 3207 3207 3207 3208 3209 3210 3211 3212 3213 3214 3214 3215 3217 3218 3220 3222 3222 3223 3223 3224 3224 3224 3225 3224 3223 3221 3219 3219 3219 3219 3220 3220 3220 3220 3221 3221 3222 3222 3223 3223 3224 3225 3226 3226 3227 3228 3228 3228 3228 3228 3228 3228 3227 3227 3227 3227 3227 3227 3227 3227 3227
3203 3203 3203 3203 3203 3203 3202 3203 3203 3203 3203 3204 3204 3204 3204 3204 3204 3204 3205 3206 3206 3206 3206 3206 3207 3207 3207 3208 3209 3210 3211 3212 3213 3214 3215 3216 3217 3219 3220 3222 3222 3223 3223 3223 3223 3224 3224 3224 3223 3222 3220 3220 3220 3221 3221 3221 3221 3222 3222 3223 3223 3224 3225 3225 3226 3227 3228 3228 3229 3229 3230 3230 3230 3229 3229 3229 3228 3228 3228 3228 3228 3228 3228 3229 3229
3203 3203 3203 3203 3204 3203 3203 3203 3204 3204 3204 3204 3204 3204 3204 3204 3204 3204 3204 3205 3205 3205 3206 3206 3207 3207 3208 3209 3210 3211 3212 3213 3214 3214 3216 3217 3218 3219 3221 3222 3223 3223 3222 3221 3222 3224 3224 3224 3224 3223 3222 3222 3222 3222 3223 3222 3223 3223 3224 3225 3225 3226 3226 3227 3228 3229 3230 3230 3231 3231 3231 3231 3231 3231 3230 3230 3230 3229 3229 3229 3229 3230 3230 3230 3231
3203 3203 3203 3204 3204 3203 3203 3203 3203 3203 3203 3204 3204 3204 3204 3204 3204 3204 3204 3205 3205 3206 3206 3207 3207 3208 3209 3210 3211 3212 3213 3214 3214 3215 3217 3218 3219 3220 3221 3223 3224 3223 3222 3222 3223 3224 3224 3224 3224 3224 3224 3223 3223 3224 3224 3224 3224 3225 3226 3226 3227 3227 3228 3229 3230 3231 3232 3232 3233 3233 3233 3232 3232 3232 3232 3231 3231 3231 3231 3231 3231 3231 3232 3232 3232
3203 3203 3203 3204 3204 3203 3203 3203 3203 3203 3203 3203 3203 3204 3204 3204 3205 3205 3206 3206 3206 3206 3207 3208 3208 3209 3210 3211 3212 3213 3214 3215 3216 3217 3218 3219 3220 3221 3222 3223 3224 3223 3223 3223 3224 3225 3225 3225 3225 3225 3225 3225 3225 3226 3226 3226 3226 3227 3228 3228 3229 3229 3230 3231 3232 3233 3234 3234 3234 3234 3234 3234 3233 3233 3233 3233 3232 3232 3232 3232 3233 3233 3233 3233 3233
3203 3203 3204 3204 3204 3204 3203 3203 3204 3203 3203 3203 3203 3204 3204 3204 3205 3206 3207 3207 3207 3208 3208 3209 3210 3210 3211 3212 3213 3214 3215 3216 3217 3218 3219 3220 3221 3222 3223 3224 3224 3224 3224 3224 3225 3225 3226 3226 3226 3226 3226 3227 3227 3227 3228 3228 3229 3229 3230 3230 3231 3231 3232 3233 3234 3235 3235 3236 3236 3235 3235 3235 3235 3235 3234 3234 3234 3234 3234 3234 3234 3234 3234 3235 3235
3203 3204 3204 3204 3204 3204 3203 3203 3204 3203 3203 3203 3203 3204 3205 3205 3206 3207 3207 3208 3208 3209 3209 3210 3211 3212 3213 3214 3215 3216 3217 3218 3218 3219 3220 3221 3222 3223 3223 3224 3224 3224 3225 3225 3226 3226 3227 3227 3227 3228 3228 3229 3229 3229 3230 3230 3231 3231 3232 3232 3233 3234 3234 3235 3236 3236 3237 3237 3237 3237 3237 3236 3236 3236 3236 3236 3235 3235 3235 3236 3236 3236 3236 3236 3236
3204 3204 3204 3204 3204 3204 3204 3204 3204 3204 3204 3204 3204 3205 3205 3206 3206 3207 3208 3208 3209 3209 3210 3211 3212 3213 3214 3215 3216 3217 3218 3219 3220 3221 3222 3223 3224 3224 3224 3224 3225 3225 3226 3227 3227 3228 3228 3229 3229 3230 3230 3231 3231 3232 3232 3233 3233 3233 3234 3235 3235 3236 3236 3237 3237 3238 3238 3238 3238 3238 3238 3238 3238 3238 3237 3237 3237 3237 3237 3237 3237 3237 3237 3237 3237
3204 3204 3204 3204 3204 3204 3204 3204 3205 3205 3205 3205 3205 3206 3206 3206 3206 3207 3208 3209 3210 3210 3211 3212 3213 3215 3216 3217 3218 3219 3220 3221 3222 3223 3224 3224 3225 3225 3225 3225 3226 3227 3227 3228 3229 3229 3230 3230 3231 3232 3232 3233 3233 3233 3234 3235 3235 3236 3236 3237 3237 3237 3237 3238 3238 3239 3239 3239 3239 3239 3239 3239 3239 3239 3239 3239 3239 3239 3239 3238 3238 3238 3238 3238 3238
3204 3205 3205 3205 3205 3205 3205 3205 3206 3206 3206 3206 3206 3207 3207 3208 3208 3208 3209 3210 3211 3211 3212 3214 3215 3216 3217 3218 3219 3221 3222 3223 3224 3224 3225 3225 3225 3226 3226 3227 3228 3228 3229 3230 3230 3231 3232 3232 3233 3234 3234 3234 3234 3235 3235 3236 3237 3238 3238 3238 3238 3238 3239 3239 3239 3240 3240 3240 3240 3240 3240 3240 3240 3240 3240 3241 3240 3240 3240 3240 3240 3239 3239 3239 3239
3205 3205 3206 3206 3206 3206 3206 3206 3207 3207 3207 3207 3208 3208 3209 3209 3209 3210 3210 3212 3212 3213 3214 3215 3216 3218 3219 3220 3221 3223 3223 3224 3225 3225 3226 3226 3226 3227 3228 3229 3230 3230 3231 3231 3232 3233 3234 3234 3235 3235 3235 3236 3236 3237 3238 3238 3239 3240 3240 3240 3240 3240 3240 3240 3240 3241 3241 3241 3241 3242 3242 3242 3242 3242 3242 3242 3242 3241 3241 3241 3241 3241 3240 3240 3240
3205 3206 3206 3206 3207 3207 3207 3207 3208 3208 3208 3209 3209 3209 3210 3210 3211 3211 3212 3213 3215 3215 3217 3217 3218 3219 3221 3222 3223 3224 3225 3225 3226 3226 3227 3227 3228 3229 3230 3231 3232 3232 3233 3233 3234 3235 3235 3236 3236 3237 3237 3238 3238 3239 3240 3240 3241 3241 3241 3241 3242 3241 3241 3241 3241 3242 3242 3242 3243 3243 3243 3243 3244 3243 3243 3243 3243 3243 3243 3242 3242 3242 3241 3241 3241
3205 3206 3207 3207 3207 3208 3208 3208 3209 3209 3209 3210 3210 3211 3212 3212 3213 3213 3214 3215 3216 3217 3218 3219 3220 3221 3222 3224 3224 3225 3225 3226 3226 3227 3228 3229 3230 3231 3232 3233 3233 3234 3234 3235 3236 3236 3237 3238 3238 3238 3239 3239 3240 3241 3241 3242 3242 3242 3243 3243 3243 3243 3242 3242 3242 3243 3243 3244 3244 3244 3245 3245 3245 3245 3245 3245 3244 3244 3244 3243 3243 3243 3242 3242 3242
3206 3207 3207 3208 3208 3209 3209 3209 3210 3210 3211 3211 3212 3212 3213 3214 3215 3215 3216 3217 3218 3219 3220 3221 3222 3223 3224 3224 3225 3225 3226 3226 3227 3228 3229 3230 3231 3232 3233 3233 3234 3235 3235 3236 3237 3238 3238 3239 3239 3240 3240 3241 3242 3243 3243 3243 3244 3244 3244 3244 3244 3244 3244 3243 3244 3244 3245 3245 3245 3246 3246 3246 3246 3246 3246 3246 3245 3245 3245 3244 3244 3244 3243 3243 3242
3206 3207 3208 3209 3209 3210 3211 3211 3211 3212 3212 3213 3213 3214 3215 3216 3216 3217 3218 3219 3220 3221 3222 3223 3223 3224 3225 3225 3225 3226 3227 3228 3229 3230 3231 3231 3232 3233 3234 3234 3235 3236 3237 3238 3238 3239 3240 3241 3241 3242 3242 3243 3244 3244 3245 3245 3245 3245 3245 3245 3245 3244 3244 3244 3245 3245 3246 3246 3247 3247 3248 3248 3248 3247 3247 3247 3246 3246 3246 3245 3245 3245 3244 3243 3243
3207 3208 3209 3209 3210 3210 3212 3212 3213 3213 3214 3214 3215 3215 3216 3216 3217 3218 3219 3220 3221 3222 3223 3224 3224 3225 3225 3225 3226 3227 3228 3229 3230 3231 3232 3232 3233 3234 3234 3235 3236 3237 3238 3239 3240 3240 3241 3242 3243 3243 3244 3244 3245 3245 3246 3246 3246 3246 3246 3246 3245 3245 3246 3246 3246 3247 3247 3248 3248 3248 3249 3249 3249 3249 3248 3248 3247 3247 3247 3246 3246 3245 3245 3244 3243
3207 3208 3209 3210 3211 3212 3212 3213 3214 3215 3215 3216 3216 3217 3217 3218 3218 3219 3220 3221 3222 3223 3223 3224 3225 3225 3226 3226 3227 3228 3229 3230 3231 3232 3233 3233 3234 3235 3235 3236 3237 3238 3239 3240 3241 3241 3242 3243 3244 3245 3245 3246 3246 3246 3247 3247 3247 3247 3247 3247 3246 3247 3247 3247 3248 3248 3248 3249 3249 3250 3250 3250 3250 3249 3249 3249 3248 3248 3248 3247 3247 3246 3245 3244 3243
3208 3209 3210 3211 3212 3213 3214 3214 3215 3216 3216 3217 3217 3218 3219 3219 3220 3220 3221 3222 3223 3224 3224 3225 3226 3227 3227 3228 3229 3230 3231 3232 3232 3233 3234 3234 3235 3236 3237 3238 3239 3239 3240 3241 3242 3243 3244 3244 3245 3246 3246 3247 3247 3247 3248 3248 3248 3248 3248 3248 3248 3248 3248 3248 3249 3249 3250 3250 3250 3250 3251 3251 3251 3250 3250 3250 3249 3249 3248 3248 3247 3246 3246 3245 3244
3209 3209 3211 3212 3213 3214 3215 3215 3216 3217 3217 3218 3218 3219 3220 3220 3221 3222 3222 3223 3224 3225 3226 3227 3227 3228 3229 3230 3230 3231 3232 3233 3234 3234 3235 3236 3236 3237 3238 3239 3240 3241 3241 3242 3243 3244 3245 3246 3246 3247 3247 3247 3248 3248 3248 3249 3249 3249 3249 3249 3249 3249 3249 3250 3250 3251 3251 3251 3251 3251 3252 3252 3252 3252 3251 3251 3250 3249 3249 3248 3248 3247 3246 3245 3244
3209 3210 3211 3213 3214 3214 3215 3216 3217 3218 3218 3219 3219 3220 3221 3222 3222 3223 3224 3225 3226 3227 3227 3228 3229 3229 3230 3231 3232 3233 3234 3234 3235 3236 3236 3237 3238 3238 3239 3240 3241 3242 3243 3243 3244 3245 3246 3247 3247 3248 3248 3248 3249 3249 3249 3250 3250 3250 3250 3250 3250 3250 3250 3251 3251 3252 3252 3252 3252 3252 3252 3252 3253 3252 3252 3251 3251 3250 3249 3249 3248 3247 3246 3245 3244
3210 3211 3212 3213 3214 3215 3216 3217 3218 3218 3219 3220 3220 3221 3222 3223 3224 3225 3226 3226 3227 3228 3229 3230 3230 3231 3232 3233 3233 3234 3235 3235 3236 3237 3237 3238 3239 3240 3240 3241 3242 3243 3244 3245 3245 3246 3247 3247 3248 3249 3249 3249 3250 3250 3250 3251 3251 3251 3251 3251 3251 3251 3251 3251 3251 3252 3252 3252 3252 3252 3252 3253 3253 3253 3252 3252 3251 3250 3250 3249 3248 3248 3247 3246 3245
3210 3211 3213 3214 3215 3216 3217 3218 3219 3219 3220 3221 3222 3222 3223 3224 3225 3226 3227 3228 3229 3230 3230 3231 3232 3233 3233 3234 3234 3235 3236 3236 3237 3237 3238 3239 3240 3241 3241 3242 3243 3244 3245 3245 3246 3247 3247 3248 3249 3249 3250 3250 3251 3251 3251 3251 3251 3251 3252 3251 3251 3252 3251 3251 3251 3253 3252 3251 3252 3253 3253 3253 3253 3253 3252 3252 3251 3250 3250 3249 3249 3248 3247 3246 3245
3211 3212 3213 3215 3216 3217 3218 3218 3219 3220 3221 3222 3223 3224 3225 3226 3226 3227 3228 3229 3230 3231 3232 3233 3233 3234 3234 3235 3235 3235 3236 3237 3238 3238 3239 3240 3241 3242 3242 3243 3244 3244 3245 3246 3247 3247 3248 3249 3249 3249 3250 3251 3251 3252 3252 3252 3252 3252 3252 3252 3252 3252 3252 3252 3252 3253 3253 3252 3252 3253 3253 3253 3253 3253 3252 3250 3250 3251 3250 3249 3249 3248 3247 3246 3245
3211 3212 3214 3215 3216 3217 3218 3219 3220 3221 3222 3223 3224 3225 3226 3227 3227 3228 3229 3230 3231 3232 3233 3233 3234 3235 3235 3235 3235 3236 3237 3237 3238 3239 3240 3241 3242 3242 3243 3244 3245 3245 3246 3247 3247 3248 3248 3249 3250 3250 3250 3251 3252 3252 3252 3252 3253 3253 3253 3253 3253 3253 3253 3252 3252 3253 3253 3253 3252 3253 3253 3253 3253 3252 3252 3250 3249 3251 3250 3249 3249 3248 3247 3246 3245
3212 3213 3214 3215 3217 3218 3219 3220 3221 3221 3222 3223 3224 3225 3227 3228 3228 3229 3230 3231 3232 3233 3234 3234 3235 3235 3235 3236 3236 3236 3237 3238 3239 3240 3241 3241 3242 3243 3244 3244 3245 3246 3247 3247 3248 3248 3249 3250 3250 3250 3250 3251 3252 3252 3253 3253 3253 3254 3254 3253 3253 3253 3253 3253 3253 3253 3254 3253 3252 3253 3253 3253 3253 3251 3251 3250 3250 3250 3250 3249 3248 3248 3247 3246 3245
3212 3213 3215 3216 3217 3218 3219 3220 3221 3222 3223 3224 3225 3226 3227 3228 3229 3230 3231 3232 3232 3233 3234 3235 3235 3235 3236 3236 3237 3237 3238 3239 3240 3240 3241 3242 3243 3244 3244 3245 3246 3246 3247 3248 3248 3249 3249 3250 3250 3250 3251 3251 3252 3252 3253 3253 3253 3254 3254 3254 3254 3254 3254 3254 3254 3255 3255 3254 3253 3254 3254 3253 3253 3252 3251 3251 3250 3250 3249 3248 3247 3247 3247 3246 3245
3213 3214 3215 3216 3217 3219 3220 3221 3222 3223 3224 3225 3226 3227 3228 3229 3230 3231 3231 3232 3233 3234 3234 3235 3235 3236 3236 3237 3237 3238 3239 3239 3240 3241 3242 3242 3243 3244 3245 3245 3246 3247 3247 3248 3248 3249 3250 3250 3250 3251 3251 3252 3252 3253 3253 3253 3254 3254 3254 3254 3254 3255 3255 3255 3255 3256 3256 3255 3254 3255 3254 3253 3253 3253 3251 3251 3251 3250 3249 3247 3247 3246 3246 3245 3245
3213 3214 3215 3216 3218 3219 3220 3221 3222 3223 3224 3225 3226 3227 3228 3229 3230 3231 3232 3233 3233 3234 3235 3235 3236 3236 3237 3238 3238 3239 3239 3240 3241 3241 3242 3242 3243 3244 3245 3246 3246 3247 3248 3248 3249 3250 3250 3251 3251 3251 3252 3252 3253 3253 3253 3254 3254 3254 3255 3255 3255 3255 3255 3256 3256 3256 3256 3256 3255 3255 3255 3255 3255 3254 3252 3251 3250 3250 3249 3248 3247 3246 3245 3245 3244
3214 3215 3216 3217 3218 3219 3220 3221 3222 3224 3225 3226 3227 3228 3229 3230 3231 3231 3232 3233 3234 3235 3235 3236 3236 3237 3237 3238 3239 3239 3240 3240 3241 3242 3242 3243 3243 3244 3245 3246 3247 3248 3248 3249 3250 3251 3251 3251 3252 3252 3253 3253 3253 3253 3254 3254 3255 3255 3255 3256 3256 3256 3256 3256 3257 3257 3257 3257 3256 3255 3255 3256 3256 3254 3253 3251 3251 3250 3249 3248 3247 3246 3245 3243 3243
3214 3215 3216 3217 3218 3219 3220 3222 3223 3224 3225 3226 3227 3228 3229 3230 3230 3231 3232 3233 3234 3235 3236 3236 3237 3237 3238 3238 3239 3240 3240 3241 3241 3242 3243 3243 3244 3244 3245 3246 3247 3248 3249 3250 3250 3251 3252 3252 3252 3252 3253 3253 3254 3254 3254 3254 3255 3255 3256 3256 3257 3257 3257 3257 3257 3257 3257 3257 3257 3256 3255 3255 3255 3253 3252 3252 3251 3250 3249 3248 3247 3246 3244 3243 3241
3214 3215 3216 3217 3218 3220 3221 3222 3223 3224 3225 3226 3227 3228 3229 3230 3231 3231 3232 3233 3234 3235 3236 3237 3237 3238 3238 3239 3239 3240 3240 3241 3241 3242 3243 3244 3244 3245 3246 3247 3247 3248 3249 3250 3251 3251 3252 3252 3253 3253 3253 3253 3254 3255 3255 3255 3255 3255 3256 3256 3257 3258 3258 3258 3257 3257 3257 3258 3257 3257 3255 3255 3255 3252 3252 3252 3251 3250 3249 3247 3247 3245 3244 3243 3241
3214 3215 3216 3218 3219 3220 3221 3222 3223 3224 3225 3226 3227 3228 3229 3230 3231 3232 3233 3234 3234 3235 3236 3237 3237 3238 3239 3239 3240 3240 3241 3241 3242 3242 3243 3244 3244 3245 3246 3247 3248 3248 3249 3250 3251 3251 3252 3252 3253 3253 3253 3253 3253 3254 3255 3255 3255 3255 3256 3256 3256 3257 3257 3257 3257 3257 3257 3258 3258 3256 3255 3254 3254 3252 3251 3251 3250 3249 3248 3247 3246 3245 3243 3243 3242
3214 3215 3216 3218 3219 3220 3221 3222 3223 3224 3225 3226 3227 3228 3229 3230 3231 3232 3233 3234 3235 3235 3236 3237 3238 3238 3239 3240 3240 3241 3241 3242 3242 3243 3243 3244 3245 3245 3246 3247 3248 3248 3249 3250 3251 3251 3252 3252 3252 3253 3253 3253 3253 3254 3254 3255 3255 3255 3256 3256 3256 3256 3256 3256 3257 3256 3256 3256 3257 3256 3255 3254 3254 3253 3251 3251 3250 3249 3247 3247 3246 3244 3243 3242 3241
3214 3215 3216 3217 3218 3219 3220 3221 3222 3224 3225 3226 3227 3228 3229 3230 3231 3232 3233 3234 3235 3235 3236 3237 3238 3238 3239 3240 3241 3241 3241 3242 3242 3243 3243 3244 3245 3245 3246 3247 3248 3248 3249 3250 3250 3251 3251 3252 3252 3252 3253 3253 3253 3253 3254 3255 3255 3256 3256 3256 3256 3256 3256 3256 3256 3256 3256 3255 3255 3255 3255 3254 3253 3253 3252 3251 3250 3249 3248 3247 3246 3244 3242 3242 3241
3214 3215 3216 3217 3218 3219 3220 3221 3222 3223 3224 3226 3227 3228 3229 3230 3231 3232 3233 3234 3235 3235 3236 3237 3238 3239 3239 3240 3241 3241 3241 3242 3242 3243 3243 3244 3245 3245 3246 3247 3247 3248 3249 3249 3250 3250 3251 3251 3252 3252 3252 3253 3253 3253 3254 3254 3255 3255 3255 3256 3256 3256 3256 3256 3255 3255 3255 3255 3254 3254 3254 3253 3253 3252 3251 3251 3250 3248 3247 3246 3245 3244 3242 3241 3240
3214 3215 3216 3217 3218 3219 3220 3221 3222 3223 3224 3225 3227 3228 3229 3230 3231 3232 3233 3233 3234 3235 3236 3237 3238 3239 3239 3240 3241 3241 3242 3242 3243 3243 3244 3244 3245 3245 3246 3246 3247 3248 3248 3249 3249 3250 3250 3251 3251 3252 3252 3252 3253 3253 3254 3254 3254 3254 3255 3255 3255 3255 3255 3255 3255 3255 3254 3254 3254 3254 3254 3253 3252 3251 3250 3249 3249 3248 3247 3245 3244 3243 3242 3241 3239
3213 3214 3215 3216 3217 3219 3220 3221 3222 3223 3224 3225 3226 3227 3228 3229 3230 3231 3232 3233 3234 3235 3236 3237 3238 3238 3239 3240 3240 3241 3242 3242 3243 3243 3244 3244 3245 3245 3246 3246 3247 3247 3248 3248 3249 3249 3250 3251 3251 3251 3252 3252 3252 3253 3253 3254 3254 3254 3254 3254 3254 3254 3254 3254 3254 3254 3254 3253 3253 3253 3253 3253 3252 3250 3249 3248 3248 3246 3246 3245 3243 3242 3241 3240 3239
3212 3213 3215 3216 3217 3218 3219 3221 3222 3223 3224 3225 3226 3227 3228 3229 3230 3231 3232 3233 3234 3235 3236 3237 3237 3238 3239 3240 3240 3241 3241 3242 3243 3243 3244 3244 3245 3245 3246 3246 3246 3247 3247 3248 3248 3249 3249 3250 3250 3251 3251 3251 3252 3252 3252 3253 3253 3253 3253 3253 3254 3254 3253 3253 3253 3253 3253 3252 3252 3252 3252 3251 3250 3249 3248 3247 3247 3245 3244 3244 3242 3241 3240 3239 3238